Retour au catalogue

SL-18 DEB

ActifLEO
NORAD 22599·DEBRIS·🇷🇺 Russia

Lancé Mar 25, 1993 depuis Plesetsk Cosmodrome

Loading…

Prochains Passages (prochaines 24 heures)

TLE

FraisSource: Space-Track

Époque: Sep 14, 2026, 10:41 UTC

1 22599U 93014E   26257.44568922  .00001644  00000-0  35563-3 0  9996
2 22599  75.7523 165.4983 0123326  94.0611 267.4668 14.54016981752622

Suivez SL-18 DEB en temps réel avec AllMySat

Download on the App Store